{"data":{"norad_id":49292,"epoch":"2026-09-19T23:23:57.978240Z","epoch_age_seconds":71152,"freshness":"FRESH","line1":"1 49292U 21090P   26262.97497660 -.00000157  00000+0 -45666-3 0  9998","line2":"2 49292  87.8898 270.8011 0001917  91.4906 268.6443 13.14503956240019","mean_motion":13.14503956,"eccentricity":0.0001917,"inclination_deg":87.8898,"raan_deg":270.8011,"arg_perigee_deg":91.4906,"mean_anomaly_deg":268.6443,"bstar":-0.00045666,"rev_number":24001,"period_min":109.54702672648,"perigee_km":1204.3320703209,"apogee_km":1207.239746364,"semimajor_km":7583.9229083424,"source":"CELESTRAK","updated_at":"2026-09-20T09:00:44.671285Z"}}